Location: Kellogg
(38.0159°N, 90.0546°W)
Time: 22:11:42
(UTC+00:00)

Transit 4A - Pass Details

Date: 17 September 2024
Orbit: 864 x 978 km, 66.8° (Epoch: 12 October)

Event Time Altitude Azimuth Distance (km) Brightness Sun altitude
Rises 10:13:57 0° 267° (W) 3,467 - -18.3°
Reaches altitude 10° 10:18:08 10° 296° (WNW) 2,553 - -17.5°
Exits shadow 10:19:01 11° 305° (NW) 2,452 9.7 -17.3°
Maximum altitude 10:20:34 13° 321° (NW) 2,389 9.8 -17.0°
Drops below altitude 10° 10:23:02 10° 345° (NNW) 2,586 10.2 -16.6°
Sets 10:27:21 0° 14° (NNE) 3,561 11.4 -15.7°
